Regional Weather Roundup
Issued by NWS

Home | Current Version | Previous Version | Graphics & Text | Print | Product List | Glossary On
Versions: 1 2 3 4 5 6 7 8 9 10 11 12 13 14 15 16 17 18 19 20 21 22 23 24 25 26 27 28 29 30 31 32 33 34 35 36 37 38 39 40 41 42 43 44 45 46 47 48 49 50
000
ASUS44 KMEG 300300
RWRTN
TENNESSEE HOURLY STATE WEATHER ROUNDUP
NATIONAL WEATHER SERVICE MEMPHIS TN
1000 PM CDT SUN MAR 29 2015

TNZ002-004-019-021-049-052-054-088>092-300400-
WEST TENNESSEE

CITY           SKY/WX    TMP DP  RH WIND       PRES   REMARKS
MEMPHIS INTL   CLOUDY    63  51  65 CALM      30.06S
NWS MEMPHIS      N/A     60 N/A N/A MISG        N/A
JACKSON        CLOUDY    59  43  55 S6        30.08S
DYERSBURG      CLOUDY    59  39  47 NW3       30.10R
UNION CITY     CLOUDY    55  52  88 SW3       30.07S
PARIS          CLOUDY    54  41  62 SW7       30.09R
LEXINGTON      CLOUDY    52  39  62 CALM      30.08S
SAVANNAH       PTCLDY    55  43  62 S7        30.09F
$$

TNZ008-025-027-028-033-062-065-066-300400-
NORTH MIDDLE TENNESSEE

CITY           SKY/WX    TMP DP  RH WIND       PRES   REMARKS
NASHVILLE      CLOUDY    56  38  50 SW3       30.12R
CLARKSVILLE    CLOUDY    57  42  57 S10       30.05F
COOKEVILLE     CLEAR     54  34  47 SW8       30.12R
CROSSVILLE     FAIR      52  29  41 S12G22    30.10S
$$

TNZ061-075-076-078-094-096-097-300400-
SOUTH MIDDLE TENNESSEE

CITY           SKY/WX    TMP DP  RH WIND       PRES   REMARKS
FAYETTEVILLE   CLEAR     52  36  54 S12       30.13S
TULLAHOMA      CLEAR     54  34  47 S10       30.13R
WINCHESTER     CLEAR     54  36  50 S16       30.14F
COLUMBIA       CLEAR     54  41  62 S5        30.09S
SHELBYVILLE    CLEAR     54  37  54 S12       30.12F
$$

TNZ017-018-042-046-047-300400-
NORTHEAST TENNESSEE

CITY           SKY/WX    TMP DP  RH WIND       PRES   REMARKS
TRI CITIES     PTCLDY    40  23  50 CALM      30.12S
ELIZABETHTON   CLEAR     36  21  55 CALM      30.12S
$$

TNZ012-013-036-069-073-074-300400-
CENTRAL EAST TENNESSEE

CITY           SKY/WX    TMP DP  RH WIND       PRES   REMARKS
KNOXVILLE      PTCLDY    53  26  35 SW18      30.11F
OAK RIDGE      PTCLDY    56  24  29 SW9       30.13S
GATLINBURG     CLEAR     41  28  60 NE3       30.08F
$$

TNZ083-085-099-300400-
SOUTHEAST TENNESSEE

CITY           SKY/WX    TMP DP  RH WIND       PRES   REMARKS
CHATTANOOGA    PTCLDY    58  30  34 S8        30.17S
$$

SKY/WX REPORTED AS FAIR MEANS FEW OR NO CLOUDS BELOW
12 THOUSAND FEET.



USA.gov is the U.S. government's official web portal to all federal, state and local government web resources and services.